Regional Weather Roundup
Issued by NWS

Home | Current Version | Previous Version | Graphics & Text | Print | Product List | Glossary On
Versions: 1 2 3 4 5 6 7 8 9 10 11 12 13 14 15 16 17 18 19 20 21 22 23 24 25 26 27 28 29 30 31 32 33 34 35 36 37 38 39 40 41 42 43 44 45 46 47 48 49 50
000
ASUS43 KLSX 250107
RWRMO

WEATHER SUMMARY FOR MISSOURI
NATIONAL WEATHER SERVICE SPRINGFIELD MO
800 PM CDT THU JUL 24 2014

NOTE: "FAIR" INDICATES FEW OR NO CLOUDS BELOW 12,000 FEET WITH NO
       SIGNIFICANT WEATHER AND/OR OBSTRUCTIONS TO VISIBILITY.
       CURRENT SKY AND/OR WEATHER CONDITIONS ARE NOT AVAILABLE FOR
       CHILLICOTHE AND FARMINGTON.

MOZ001>031-035>038-043-044-053-054-250200-
...NORTHERN AND WESTERN MISSOURI...

CITY           SKY/WX    TMP DP  RH WIND       PRES   REMARKS
KANSAS CTY INT PTCLDY    78  59  51 SE12      30.01F
KANSAS C DTWN  CLEAR     81  58  45 SE8G16    30.00S
LEE`S SUMMIT   CLEAR     78  57  48 SE7       30.02F
ST JOSEPH      PTCLDY    78  62  57 SE8       30.00S
CHILLICOTHE      N/A     78  60  53 E3        30.07R
KIRKSVILLE     MOCLDY    72  62  71 SE6       30.07F

$$
MOZ066>068-077>081-088>096-101>105-250200-
...SOUTHWEST MISSOURI...

CITY           SKY/WX    TMP DP  RH WIND       PRES   REMARKS
SPRINGFIELD    CLEAR     79  59  50 NE9       30.05R
JOPLIN         CLEAR     84  61  45 SE5       30.00S

$$
MOZ032>034-039>042-045>050-055>058-069>072-250200-
...CENTRAL MISSOURI...

CITY           SKY/WX    TMP DP  RH WIND       PRES   REMARKS
COLUMBIA       PTCLDY    75  58  55 E7        30.04F
JEFFERSON CITY PTCLDY    77  57  50 E5        30.03F
ROLLA          CLEAR     75  53  46 E5        30.05F
SEDALIA        CLEAR     77  58  51 E6        30.04F
WHITEMAN AFB   CLEAR     78  50  37 E3        30.02F
OSAGE BEACH    CLEAR     77  57  50 CALM      30.04F

$$
MOZ051-052-059>065-250200-
...EAST CENTRAL MISSOURI...

CITY           SKY/WX    TMP DP  RH WIND       PRES   REMARKS
ST LOUIS INTL  PTCLDY    76  53  44 N9        30.08R
SPIRIT OF STL  PTCLDY    76  52  43 N5        30.06R
ST CHARLES     CLEAR     73  57  57 NE3       30.06S

$$
MOZ072>076-082>087-097>100-106>115-250200-
...SOUTH CENTRAL AND SOUTHEAST MISSOURI...

CITY           SKY/WX    TMP DP  RH WIND       PRES   REMARKS
CAPE GIRARDEAU CLEAR     74  63  68 N5        30.03R
FARMINGTON     PTCLDY    72  55  56 NE5       30.10R
POPLAR BLUFF   PTCLDY    75  61  61 N3        30.03R
WEST PLAINS    CLEAR     75  59  57 NE3       30.08R

$$


USA.gov is the U.S. government's official web portal to all federal, state and local government web resources and services.